{"data":{"norad_id":65038,"epoch":"2026-05-24T15:32:37.739328Z","epoch_age_seconds":95561,"freshness":"FRESH","line1":"1 65038U 25161Z   26144.64765902  .00035723  00000+0  12124-2 0  9994","line2":"2 65038  53.1594 301.0767 0001066  94.1716 265.9407 15.30201174 45866","mean_motion":15.30201174,"eccentricity":0.0001066,"inclination_deg":53.1594,"raan_deg":301.0767,"arg_perigee_deg":94.1716,"mean_anomaly_deg":265.9407,"bstar":0.0012124,"rev_number":4586,"period_min":94.105273506998,"perigee_km":474.48099711225,"apogee_km":475.94213102611,"semimajor_km":6853.3485640692,"source":"CELESTRAK","updated_at":"2026-05-25T13:38:20.673264Z"}}